Cordoba, Spain

8:41 PM CEST on March 30, 2017 (GMT +0200)
Cordoba

Weather History for LEBA - July, 2013

Change the Weather History Date:

Monday, July 15, 2013

  Actual Average Record
Temperature  
Mean Temperature 82 °F -  
Max Temperature 97 °F - - ()
Min Temperature 66 °F - - ()
Cooling Degree Days 16    
Growing Degree Days 32 (Base 50)    
Moisture  
Dew Point 61 °F    
Average Humidity 48    
Maximum Humidity 88    
Minimum Humidity 15    
Precipitation  
Precipitation 0.00 in 0.01 in - ()
Sea Level Pressure  
Sea Level Pressure 30.05 in    
Wind  
Wind Speed 5 mph ()    
Max Wind Speed 20 mph    
Max Gust Speed -    
Visibility 12.8 miles    
Events      
T = Trace of Precipitation, MM = Missing Value Source: Averaged Metar Reports

Daily Weather History Graph

Daily Weather History Graph

Search for Another Location

Airport or City:

Trip Planner

Search our weather history database for the weather conditions in past years. The results will help you decide how hot, cold, wet, or windy it might be!

Date:

Astronomy

Jul. 15, 2013 Rise Set
Actual Time 7:09 AM CEST 9:41 PM CEST
Civil Twilight 6:38 AM CEST 10:11 PM CEST
Nautical Twilight 6:00 AM CEST 10:49 PM CEST
Astronomical Twilight 5:18 AM CEST 11:31 PM CEST
Moon 2:05 PM CEST (7/15) 12:53 AM CEST (7/15)
Length of Visible Light 15h 32m
Length of Day
14h 31m
Waxing Crescent, 42% of the Moon is Illuminated
Jul 15
Waxing Crescent
Jul 16
First Quarter
Jul 22
Full
Jul 29
Last Quarter
Aug 6
New

Hourly Weather History & Observations

Time (CEST) Temp. Heat Index Dew Point Humidity Pressure Visibility Wind Dir Wind Speed Gust Speed Precip Events Conditions
12:00 AM 78 °F - 64 °F 53% 30.05 in - WSW 10.4 mph - -  
2:00 AM 74 °F - 64 °F 65% 30.06 in - WSW 8.9 mph - -  
3:00 AM 72 °F - 64 °F 68% 30.07 in - WSW 2.3 mph - -  
4:00 AM 70 °F - 63 °F 73% 30.07 in - WSW 3.5 mph - -  
5:00 AM 69 °F - 63 °F 76% 30.07 in - West 6.7 mph - -  
6:00 AM 68 °F - 63 °F 78% 30.07 in - West 2.3 mph - -  
7:00 AM 67 °F - 63 °F 83% 30.08 in - SW 2.3 mph - -  
7:00 AM 66.2 °F - 62.6 °F 88% 30.06 in - WSW 1.2 mph - N/A   Clear
8:00 AM 68 °F - 64 °F 81% 30.09 in 6 mi Calm Calm - -  
8:00 AM 68.0 °F - 62.6 °F 83% 30.09 in - Calm Calm - N/A   Clear
9:00 AM 72 °F - 64 °F 70% 30.10 in - SW 4.5 mph - -  
9:00 AM 69.8 °F - 64.4 °F 83% 30.09 in - Variable 1.2 mph - N/A   Clear
10:00 AM 76 °F - 64 °F 59% 30.10 in - Calm Calm - -  
10:00 AM 75.2 °F - 64.4 °F 69% 30.09 in - Calm Calm - N/A   Clear
11:00 AM 80 °F - 64 °F 48% 30.10 in 9 mi SW 2.2 mph - -  
11:00 AM 77.0 °F - 62.6 °F 61% 30.09 in - SW 1.2 mph - N/A   Clear
12:00 PM 84 °F - 65 °F 42% 30.09 in - SSW 2.3 mph - -  
12:00 PM 80.6 °F 82.3 °F 64.4 °F 58% 30.09 in - SSW 1.2 mph - N/A   Clear
1:00 PM 88 °F - 64 °F 34% 30.08 in - SSE 4.5 mph - -  
1:00 PM 84.2 °F 85.0 °F 62.6 °F 48% 30.09 in - SE 2.3 mph - N/A   Clear
1:59 PM 86.0 °F 86.6 °F 62.6 °F 45% 30.06 in - SW 4.6 mph - N/A   Clear
2:00 PM 89 °F - 63 °F 31% 30.06 in 12 mi SW 4.6 mph - -  
2:00 PM - - - N/A% 30.06 in - SW 4.6 mph - N/A   Clear
3:00 PM 93 °F - 63 °F 27% 30.04 in - WSW 4.6 mph - -  
3:00 PM 89.6 °F 90.1 °F 62.6 °F 40% 30.04 in - WSW 4.6 mph - N/A   Clear
4:00 PM 95 °F - 60 °F 22% 30.01 in - WSW 6.9 mph - -  
4:00 PM 91.4 °F 92.1 °F 62.6 °F 38% 30.04 in - WSW 6.9 mph - N/A   Clear
5:00 PM 96 °F - 53 °F 15% 30.00 in 12 mi West 15.7 mph - -  
5:00 PM 93.2 °F 91.3 °F 55.4 °F 28% 30.01 in - West 8.1 mph - N/A   Clear
6:00 PM 96 °F - 54 °F 16% 29.99 in - West 8.1 mph - -  
6:00 PM 93.2 °F 91.9 °F 57.2 °F 30% 30.01 in - West 8.1 mph - N/A   Clear
7:00 PM 96 °F - 54 °F 16% 29.98 in - West 8.1 mph - -  
7:00 PM 91.4 °F 89.9 °F 57.2 °F 31% 30.01 in - West 8.1 mph - N/A   Clear
8:00 PM 94 °F - 55 °F 18% 29.98 in 19 mi West 20.1 mph - -  
8:00 PM 91.4 °F 89.9 °F 57.2 °F 31% 29.98 in - West 9.2 mph - N/A   Clear
9:00 PM 90 °F - 54 °F 20% 29.99 in - West 8.1 mph - -  
9:00 PM 87.8 °F 86.1 °F 55.4 °F 33% 29.98 in - West 6.9 mph - N/A   Clear
10:00 PM 82 °F - 56 °F 31% 30.00 in - WSW 8.9 mph - -  
11:00 PM 77 °F - 58 °F 41% 30.02 in 19 mi West 8.9 mph - -